Weather History for Istrana, Italy

Change the Weather History Date:

Tuesday, October 15, 2013

  Actual Average Record
Temperature  
Mean Temperature 58 °F -  
Max Temperature 63 °F 60 °F 78 °F (2008)
Min Temperature 54 °F 42 °F 37 °F (1997)
Degree Days  
Heating Degree Days 6    
Growing Degree Days 8 (Base 50)    
Moisture  
Dew Point 53 °F    
Average Humidity 83    
Maximum Humidity 94    
Minimum Humidity 63    
Precipitation  
Precipitation 0.00 in 0.12 in - ()
Sea Level Pressure  
Sea Level Pressure 30.00 in    
Wind  
Wind Speed 0 mph ()    
Max Wind Speed 0 mph    
Max Gust Speed -    
Visibility 2.6 miles    
Events      
Averages and records for this station are not official NWS values.
T = Trace of Precipitation, MM = Missing Value Source: Averaged Metar Reports

Daily Weather History Graph

Daily Weather History Graph

Search for Another Location

Airport:

Trip Planner

Search our weather history database for the weather conditions in past years. The results will help you decide how hot, cold, wet, or windy it might be!

Date:

Astronomy

Oct. 15, 2013 Rise Set
Actual Time 7:28 AM CEST 6:25 PM CEST
Civil Twilight 6:58 AM CEST 6:55 PM CEST
Nautical Twilight 6:23 AM CEST 7:30 PM CEST
Astronomical Twilight 5:49 AM CEST 8:04 PM CEST
Moon 4:30 PM CEST (10/15) 3:21 AM CEST (10/15)
Length of Visible Light 11h 57m
Length of Day
10h 57m
Waxing Gibbous, 85% of the Moon is Illuminated
Oct 15
Waxing Gibbous
Oct 19
Full
Oct 27
Last Quarter
Nov 3
New
Nov 10
First Quarter

Hourly Weather History & Observations

Time (CEST) Temp. Dew Point Humidity Pressure Visibility Wind Dir Wind Speed Gust Speed Precip Events Conditions
12:55 AM 55.4 °F 51.8 °F 88% 30.09 in - North - - N/A   Mostly Cloudy
1:55 AM 55.4 °F 51.8 °F 88% 30.09 in - North - - N/A   Mostly Cloudy
2:00 AM 55 °F 52 °F 87% 30.12 in 4 mi Calm Calm - -   Mist
2:55 AM 55.4 °F 51.8 °F 88% 30.09 in - North - - N/A   Mostly Cloudy
3:55 AM 53.6 °F 50.0 °F 88% 30.06 in - North - - N/A   Mostly Cloudy
4:55 AM 53.6 °F 50.0 °F 88% 30.06 in - North - - N/A   Mostly Cloudy
5:00 AM 54 °F 50 °F 82% 30.07 in 2 mi Calm Calm - -   Mist
5:55 AM 55.4 °F 51.8 °F 88% 30.06 in - North - - N/A   Mostly Cloudy
6:55 AM 55.4 °F 51.8 °F 88% 30.06 in - North - - N/A   Mostly Cloudy
7:55 AM 55.4 °F 51.8 °F 88% 30.06 in - North - - N/A   Mostly Cloudy
8:00 AM 55 °F 51 °F 81% 30.07 in 1 mi Calm Calm - -   Mist
8:55 AM 55.4 °F 51.8 °F 88% 30.06 in - North - - N/A   Mostly Cloudy
9:55 AM 57.2 °F 51.8 °F 82% 30.06 in - North - - N/A   Overcast
10:55 AM 57.2 °F 53.6 °F 88% 30.06 in - North - - N/A   Overcast
11:00 AM 58 °F 53 °F 77% 30.07 in 3 mi Calm Calm - -   Mist
11:55 AM 59.0 °F 51.8 °F 77% 30.04 in - North - - N/A   Overcast
12:55 PM 60.8 °F 51.8 °F 72% 30.04 in - North - - N/A   Mostly Cloudy
1:55 PM 62.6 °F 53.6 °F 72% 30.01 in - North - - N/A   Mostly Cloudy
2:00 PM 62 °F 53 °F 65% 30.01 in 4 mi Calm Calm - -   Mist
2:55 PM 62.6 °F 53.6 °F 72% 29.98 in - North - - N/A   Mostly Cloudy
3:55 PM 62.6 °F 53.6 °F 72% 29.95 in - North - - N/A   Scattered Clouds
4:55 PM 62.6 °F 53.6 °F 72% 29.95 in - North - - N/A   Mostly Cloudy
5:00 PM 63 °F 53 °F 63% 29.95 in 4 mi Calm Calm - -   Mist
5:55 PM 60.8 °F 55.4 °F 82% 29.92 in - North - - N/A   Mostly Cloudy
6:55 PM 59.0 °F 55.4 °F 88% 29.92 in - North - - N/A   Scattered Clouds
7:55 PM 57.2 °F 53.6 °F 88% 29.92 in - North - - N/A   Mostly Cloudy
8:00 PM 57 °F 54 °F 85% 29.93 in 2 mi Calm Calm - -   Mist
8:55 PM 57.2 °F 53.6 °F 88% 29.92 in - North - - N/A   Scattered Clouds
9:55 PM 57.2 °F 53.6 °F 88% 29.89 in - North - - N/A   Mostly Cloudy
10:55 PM 57.2 °F 53.6 °F 88% 29.89 in - North - - N/A   Mostly Cloudy
11:00 PM 57 °F 54 °F 86% 29.90 in 1 mi Calm Calm - -   Mist
11:55 PM 55.4 °F 53.6 °F 94% 29.86 in - North - - N/A   Mostly Cloudy